| time (UTC) | temp F | wind direction | speed MPH | gust MPH | rain 1hr in | rain 24hr in | rain mn in | humidity % | barometer mb |
| 20260507003014 | 62 | 46 | 5.0 | 8.0 | 0.00 | 0.00 | 0.00 | 49 | 1014.5 |
| 20260507001623 | 62 | 29 | 3.0 | 7.0 | 0.00 | 0.00 | 0.00 | 49 | 1014.4 |
| 20260507000023 | 62 | 54 | 2.0 | 9.0 | 0.00 | 0.00 | 0.00 | 49 | 1014.3 |
| 20260506234513 | 62 | 22 | 2.0 | 8.0 | 0.00 | 0.00 | 0.00 | 50 | 1014.3 |
| 20260506233011 | 62 | 40 | 1.0 | 6.0 | 0.00 | 0.00 | 0.00 | 49 | 1014.1 |
| 20260506231513 | 64 | 64 | 0.0 | 6.0 | 0.00 | 0.00 | 0.00 | 48 | 1013.9 |
| 20260506230010 | 64 | 19 | 1.0 | 7.0 | 0.00 | 0.00 | 0.00 | 48 | 1013.9 |
| 20260506224509 | 64 | 351 | 4.0 | 10.0 | 0.00 | 0.00 | 0.00 | 47 | 1013.6 |
| 20260506223007 | 64 | 43 | 3.0 | 10.0 | 0.00 | 0.00 | 0.00 | 48 | 1013.4 |
| 20260506221510 | 65 | 51 | 2.0 | 8.0 | 0.00 | 0.00 | 0.00 | 46 | 1013.3 |
| 20260506220007 | 65 | 24 | 5.0 | 8.0 | 0.00 | 0.00 | 0.00 | 46 | 1013.4 |
| 20260506214506 | 65 | 8 | 2.0 | 7.0 | 0.00 | 0.00 | 0.00 | 48 | 1013.4 |
| 20260506213003 | 64 | 323 | 2.0 | 13.0 | 0.00 | 0.00 | 0.00 | 49 | 1013.6 |
| 20260506211600 | 63 | 22 | 2.0 | 8.0 | 0.00 | 0.00 | 0.00 | 51 | 1013.9 |
| 20260506211501 | 63 | 49 | 1.0 | 8.0 | 0.00 | 0.00 | 0.00 | 51 | 1013.8 |
| 20260506210121 | 63 | 97 | 3.0 | 9.0 | 0.00 | 0.00 | 0.00 | 51 | 1014.0 |
| 20260506204558 | 62 | 40 | 2.0 | 8.0 | 0.00 | 0.00 | 0.00 | 53 | 1014.0 |
| 20260506203102 | 62 | 57 | 4.0 | 10.0 | 0.00 | 0.00 | 0.00 | 53 | 1014.1 |
| 20260506201557 | 62 | 39 | 4.0 | 10.0 | 0.00 | 0.00 | 0.00 | 53 | 1014.3 |
| 20260506200137 | 62 | 29 | 2.0 | 9.0 | 0.00 | 0.00 | 0.00 | 53 | 1014.4 |
| 20260506194603 | 61 | 29 | 5.0 | 11.0 | 0.00 | 0.00 | 0.00 | 53 | 1014.5 |
| 20260506193052 | 60 | 47 | 3.0 | 9.0 | 0.00 | 0.00 | 0.00 | 55 | 1014.6 |
| 20260506191552 | 59 | 30 | 2.0 | 9.0 | 0.00 | 0.00 | 0.00 | 56 | 1014.8 |
| 20260506190051 | 60 | 66 | 4.0 | 8.0 | 0.00 | 0.00 | 0.00 | 54 | 1014.9 |
| 20260506184553 | 60 | 26 | 2.0 | 11.0 | 0.00 | 0.00 | 0.00 | 55 | 1014.9 |
| 20260506183052 | 60 | 53 | 2.0 | 8.0 | 0.00 | 0.00 | 0.00 | 56 | 1015.0 |
| 20260506181549 | 61 | 222 | 2.0 | 8.0 | 0.00 | 0.00 | 0.00 | 52 | 1015.2 |
| 20260506180053 | 61 | 62 | 2.0 | 7.0 | 0.00 | 0.00 | 0.00 | 53 | 1015.3 |
| 20260506174546 | 59 | 49 | 4.0 | 10.0 | 0.00 | 0.00 | 0.00 | 56 | 1015.5 |
| 20260506173050 | 58 | 308 | 4.0 | 12.0 | 0.00 | 0.00 | 0.00 | 55 | 1015.6 |
| 20260506171551 | 60 | 54 | 3.0 | 9.0 | 0.00 | 0.00 | 0.00 | 55 | 1015.6 |
| 20260506170044 | 58 | 105 | 2.0 | 11.0 | 0.00 | 0.00 | 0.00 | 56 | 1015.6 |
| 20260506164543 | 59 | 32 | 3.0 | 7.0 | 0.00 | 0.00 | 0.00 | 54 | 1015.6 |
| 20260506163046 | 58 | 165 | 3.0 | 9.0 | 0.00 | 0.00 | 0.00 | 57 | 1015.9 |
| 20260506161548 | 57 | 159 | 3.0 | 8.0 | 0.00 | 0.00 | 0.00 | 59 | 1015.9 |
| 20260506160032 | 55 | 166 | 2.0 | 9.0 | 0.00 | 0.00 | 0.00 | 63 | 1015.8 |
| 20260506154529 | 54 | 30 | 5.0 | 14.0 | 0.00 | 0.00 | 0.00 | 64 | 1015.7 |
| 20260506153025 | 53 | 41 | 2.0 | 11.0 | 0.00 | 0.00 | 0.00 | 69 | 1015.3 |
| 20260506151522 | 51 | 359 | 4.0 | 10.0 | 0.00 | 0.00 | 0.00 | 71 | 1015.5 |
| 20260506150024 | 50 | 41 | 7.0 | 12.0 | 0.00 | 0.00 | 0.00 | 73 | 1015.4 |
| 20260506144516 | 50 | 41 | 5.0 | 10.0 | 0.00 | 0.00 | 0.00 | 75 | 1015.1 |
| 20260506143020 | 50 | 43 | 5.0 | 11.0 | 0.00 | 0.00 | 0.00 | 76 | 1014.7 |
| 20260506141512 | 49 | 23 | 5.0 | 12.0 | 0.00 | 0.00 | 0.00 | 76 | 1014.7 |
| 20260506140011 | 48 | 39 | 4.0 | 14.0 | 0.00 | 0.00 | 0.00 | 78 | 1014.8 |
| 20260506134520 | 48 | 29 | 5.0 | 12.0 | 0.00 | 0.00 | 0.00 | 79 | 1015.0 |
| 20260506133011 | 48 | 31 | 4.0 | 13.0 | 0.00 | 0.00 | 0.00 | 80 | 1014.8 |
| 20260506131507 | 48 | 75 | 4.0 | 9.0 | 0.00 | 0.00 | 0.00 | 81 | 1015.0 |
| 20260506130007 | 48 | 330 | 4.0 | 11.0 | 0.00 | 0.00 | 0.00 | 81 | 1014.8 |
| 20260506124508 | 47 | 65 | 3.0 | 8.0 | 0.00 | 0.00 | 0.00 | 82 | 1014.6 |
| 20260506123002 | 47 | 53 | 5.0 | 13.0 | 0.00 | 0.00 | 0.00 | 82 | 1014.3 |
| 20260506121608 | 47 | 39 | 4.0 | 12.0 | 0.00 | 0.00 | 0.00 | 83 | 1014.0 |
| 20260506114557 | 47 | 31 | 3.0 | 8.0 | 0.00 | 0.00 | 0.00 | 83 | 1013.5 |
| 20260506113055 | 47 | 100 | 3.0 | 10.0 | 0.00 | 0.00 | 0.00 | 82 | 1013.3 |
| 20260506111610 | 47 | 51 | 3.0 | 12.0 | 0.00 | 0.00 | 0.00 | 81 | 1013.1 |
| 20260506110052 | 47 | 32 | 3.0 | 8.0 | 0.00 | 0.00 | 0.00 | 81 | 1013.0 |
| 20260506104549 | 47 | 39 | 3.0 | 8.0 | 0.00 | 0.00 | 0.00 | 80 | 1013.2 |
| 20260506103047 | 47 | 39 | 2.0 | 7.0 | 0.00 | 0.00 | 0.00 | 79 | 1013.8 |
| 20260506101546 | 47 | 63 | 2.0 | 6.0 | 0.00 | 0.00 | 0.00 | 79 | 1013.2 |
| 20260506100044 | 47 | 46 | 1.0 | 5.0 | 0.00 | 0.00 | 0.00 | 79 | 1013.4 |
| 20260506094542 | 47 | 23 | 1.0 | 7.0 | 0.00 | 0.00 | 0.00 | 78 | 1013.1 |
| 20260506093038 | 47 | 50 | 4.0 | 7.0 | 0.00 | 0.00 | 0.00 | 78 | 1012.4 |
| 20260506091540 | 47 | 44 | 2.0 | 7.0 | 0.00 | 0.00 | 0.00 | 76 | 1012.2 |
| 20260506090034 | 47 | 70 | 2.0 | 9.0 | 0.00 | 0.00 | 0.00 | 76 | 1012.1 |
| 20260506084532 | 47 | 34 | 2.0 | 6.0 | 0.00 | 0.00 | 0.00 | 75 | 1012.0 |
| 20260506083032 | 48 | 24 | 3.0 | 9.0 | 0.00 | 0.00 | 0.00 | 75 | 1011.7 |
| 20260506081531 | 48 | 44 | 2.0 | 9.0 | 0.00 | 0.00 | 0.00 | 74 | 1011.2 |
| 20260506073120 | 48 | 47 | 3.0 | 11.0 | 0.00 | 0.00 | 0.00 | 73 | 1010.5 |
| 20260506071518 | 48 | 36 | 3.0 | 9.0 | 0.00 | 0.00 | 0.00 | 73 | 1010.4 |
| 20260506061513 | 48 | 56 | 3.0 | 8.0 | 0.00 | 0.00 | 0.00 | 72 | 1010.6 |
| 20260506050109 | 48 | 46 | 4.0 | 9.0 | 0.00 | 0.00 | 0.00 | 71 | 1010.1 |
| 20260506044601 | 48 | 57 | 5.0 | 10.0 | 0.00 | 0.00 | 0.00 | 72 | 1010.0 |
| 20260506043058 | 48 | 38 | 3.0 | 12.0 | 0.00 | 0.00 | 0.00 | 74 | 1010.3 |
| 20260506041602 | 48 | 95 | 5.0 | 9.0 | 0.00 | 0.00 | 0.00 | 76 | 1010.2 |
| 20260506040052 | 48 | 41 | 6.0 | 12.0 | 0.00 | 0.00 | 0.00 | 77 | 1010.1 |
| 20260506034557 | 48 | 45 | 4.0 | 11.0 | 0.00 | 0.00 | 0.00 | 79 | 1010.0 |
| 20260506033049 | 48 | 22 | 5.0 | 10.0 | 0.00 | 0.00 | 0.00 | 80 | 1010.0 |
| 20260506031546 | 48 | 24 | 6.0 | 13.0 | 0.00 | 0.00 | 0.00 | 81 | 1009.3 |
| 20260506030044 | 48 | 246 | 7.0 | 11.0 | 0.00 | 0.00 | 0.00 | 82 | 1008.7 |
| 20260506024550 | 48 | 41 | 7.0 | 12.0 | 0.00 | 0.00 | 0.00 | 82 | 1009.0 |
| 20260506023041 | 48 | 46 | 6.0 | 13.0 | 0.00 | 0.00 | 0.00 | 83 | 1008.9 |
| 20260506021540 | 48 | 47 | 3.0 | 12.0 | 0.00 | 0.00 | 0.00 | 83 | 1008.9 |
| 20260506020040 | 48 | 19 | 4.0 | 12.0 | 0.00 | 0.00 | 0.00 | 83 | 1008.7 |
| 20260506014535 | 48 | 37 | 6.0 | 12.0 | 0.00 | 0.00 | 0.00 | 82 | 1008.3 |
| 20260506013033 | 49 | 38 | 6.0 | 11.0 | 0.00 | 0.00 | 0.00 | 81 | 1008.2 |
| 20260506011557 | 49 | 47 | 5.0 | 12.0 | 0.00 | 0.00 | 0.00 | 81 | 1008.3 |
| 20260506010025 | 49 | 41 | 4.0 | 9.0 | 0.00 | 0.00 | 0.00 | 81 | 1007.9 |
| 20260506004523 | 49 | 15 | 5.0 | 9.0 | 0.00 | 0.00 | 0.00 | 80 | 1007.3 |